Location: Songkhla
(7.2000°N, 100.6000°E)
Time: 10:23:48
(UTC+07:00)

First-Move - Pass Details

Date: 01 August 2021
Orbit: 576 x 665 km, 97.6° (Epoch: 24 September)

Event Time Altitude Azimuth Distance (km) Brightness Sun altitude
Rises 05:02:21 0° 1° (N) 2,961 ? -16.9°
Reaches altitude 10° 05:04:37 10° 355° (N) 2,061 ? -16.3°
Maximum altitude 05:08:56 46° 282° (WNW) 889 ? -15.4°
Enters shadow 05:12:10 17° 215° (SW) 1,659 ? -14.6°
